Weather History for Abilene, TX

Change the Weather History Date:

Sunday, November 30, 2014

  Actual Average Record
Temperature  
Mean Temperature 60 °F 49 °F  
Max Temperature 78 °F 60 °F 81 °F (1950)
Min Temperature 42 °F 37 °F 17 °F (1979)
Degree Days  
Heating Degree Days 5 16  
Month to date heating degree days 390 329  
Since 1 July heating degree days 417 433  
Cooling Degree Days 0 0  
Month to date cooling degree days 9 19  
Year to date cooling degree days 2819 2408  
Growing Degree Days 10 (Base 50)    
Moisture  
Dew Point 47 °F    
Average Humidity 58    
Maximum Humidity 87    
Minimum Humidity 29    
Precipitation  
Precipitation 0.00 in 0.03 in 0.62 in (1931)
Month to date precipitation 2.44 1.41  
Year to date precipitation 14.49 23.59  
Sea Level Pressure  
Sea Level Pressure 29.94 in    
Wind  
Wind Speed 16 mph (SSW)    
Max Wind Speed 32 mph    
Max Gust Speed 41 mph    
Visibility 10 miles    
Events      
T = Trace of Precipitation, MM = Missing Value Source: NWS Daily Summary

Daily Weather History Graph

Daily Weather History Graph

Search for Another Location

Airport:

Trip Planner

Search our weather history database for the weather conditions in past years. The results will help you decide how hot, cold, wet, or windy it might be!

Date:

Astronomy

Nov. 30, 2014 Rise Set
Actual Time 7:21 AM CST 5:33 PM CST
Civil Twilight 6:54 AM CST 5:59 PM CST
Nautical Twilight 6:24 AM CST 6:30 PM CST
Astronomical Twilight 5:54 AM CST 6:59 PM CST
Moon 1:45 PM CST 1:14 AM CST
Length of Visible Light 11h 05m
Length of Day
10h 11m
Waxing Gibbous, 65% of the Moon is Illuminated
Nov 30
Waxing Gibbous
Dec 6
Full
Dec 14
Last Quarter
Dec 21
New
Dec 28
First Quarter

Hourly Weather History & Observations

Time (CST) Temp. Windchill Dew Point Humidity Pressure Visibility Wind Dir Wind Speed Gust Speed Precip Events Conditions
12:52 AM 57.9 °F - 48.9 °F 72% 29.86 in 10.0 mi SSW 19.6 mph - N/A   Clear
1:52 AM 59.0 °F - 50.0 °F 72% 29.85 in 10.0 mi SSW 19.6 mph 29.9 mph N/A   Clear
2:52 AM 59.0 °F - 50.0 °F 72% 29.85 in 10.0 mi SSW 18.4 mph - N/A   Clear
3:52 AM 59.0 °F - 51.1 °F 75% 29.84 in 10.0 mi SSW 20.7 mph 25.3 mph N/A   Clear
4:52 AM 59.0 °F - 53.1 °F 81% 29.83 in 10.0 mi SSW 28.8 mph 40.3 mph N/A   Clear
5:52 AM 57.9 °F - 54.0 °F 87% 29.86 in 10.0 mi SSW 21.9 mph 31.1 mph N/A   Partly Cloudy
6:52 AM 57.9 °F - 54.0 °F 87% 29.88 in 10.0 mi SSW 17.3 mph 27.6 mph N/A   Clear
7:52 AM 59.0 °F - 55.0 °F 87% 29.91 in 10.0 mi SSW 15.0 mph - N/A   Clear
8:52 AM 61.0 °F - 54.0 °F 78% 29.93 in 10.0 mi SSW 21.9 mph 29.9 mph N/A   Clear
9:52 AM 63.0 °F - 55.0 °F 75% 29.96 in 10.0 mi SSW 16.1 mph 26.5 mph N/A   Clear
10:52 AM 68.0 °F - 54.0 °F 61% 29.96 in 10.0 mi SSW 15.0 mph - N/A   Clear
11:52 AM 71.1 °F - 52.0 °F 51% 29.94 in 10.0 mi SSW 20.7 mph - N/A   Clear
12:52 PM 73.0 °F - 50.0 °F 44% 29.91 in 10.0 mi SSW 17.3 mph 24.2 mph N/A   Clear
1:52 PM 75.9 °F - 46.9 °F 36% 29.88 in 10.0 mi SW 10.4 mph - N/A   Clear
2:52 PM 77.0 °F - 45.0 °F 32% 29.88 in 10.0 mi SSW 17.3 mph - N/A   Clear
3:52 PM 77.0 °F - 43.0 °F 30% 29.88 in 10.0 mi South 12.7 mph - N/A   Clear
4:52 PM 75.9 °F - 42.1 °F 30% 29.90 in 10.0 mi SSW 10.4 mph - N/A   Clear
5:52 PM 69.1 °F - 42.1 °F 38% 29.93 in 10.0 mi South 6.9 mph - N/A   Clear
6:52 PM 63.0 °F - 44.1 °F 50% 29.95 in 10.0 mi South 9.2 mph - N/A   Clear
7:52 PM 61.0 °F - 44.1 °F 54% 29.98 in 10.0 mi South 6.9 mph - N/A   Clear
8:52 PM 62.1 °F - 44.1 °F 52% 29.99 in 10.0 mi SSW 10.4 mph - N/A   Clear
9:52 PM 64.0 °F - 45.0 °F 50% 30.01 in 10.0 mi South 12.7 mph - N/A   Clear
10:52 PM 48.0 °F - 36.0 °F 63% 30.12 in 10.0 mi North 19.6 mph - N/A   Clear
11:52 PM 43.0 °F 35.1 °F 32.0 °F 65% 30.18 in 10.0 mi NNW 17.3 mph - N/A   Clear